User: anonymous   Login
Location: Unspecified
(0.0000°N, 0.0000°E)
Time: 10:43:03
(UTC+00:00)
Language:

OBJECT PE - Orbit

View from above orbital plane
View from above orbital plane
View from above satellite
View from above satellite

Ground track
Ground track

The orbit data is extracted from the following two-line orbital elements,

1 43590U 98067PE  19111.86041338  .00013692  00000-0  17004-3 0  9993
2 43590  51.6370 274.0646 0005487 294.2865  65.7555 15.60307493 39647
Epoch (UTC): 21 April 2019 20:38:59
Eccentricity: 0.0005487
inclination: 51.6370°
perigee height: 383 km
apogee height: 390 km
right ascension of ascending node: 274.0646°
argument of perigee: 294.2865°
revolutions per day: 15.60307493
mean anomaly at epoch: 65.7555°
orbit number at epoch: 3964

The dashed part of the orbit path shows where the satellite is in the earth's shadow,  

DLR